This is the latest recevied weather packets stored in our database for station/object OE-11204. If no packets are shown the sender has not sent any weather packets the latest 10 day(s).
| Time | Temp. | Humidity | Pressure | Rain* | Wind** | Luminosity | Snow |
|---|---|---|---|---|---|---|---|
| 1787909715 | 25.56° C | 56% | 1013.3 hPa | 0 mm | - | 631 W/m² | - |
| 1787909115 | 25.56° C | 61% | 1013.6 hPa | 0 mm | - | 619 W/m² | - |
| 1787908287 | 25° C | 60% | 1013.9 hPa | 0 mm | - | 606 W/m² | - |
| 1787907915 | 24.44° C | 64% | 1014.4 hPa | 0 mm | - | 588 W/m² | - |
| 1787907315 | 23.89° C | 64% | 1014.7 hPa | 0 mm | - | 569 W/m² | - |
| 1787906487 | 23.33° C | 65% | 1014.9 hPa | 0 mm | - | 551 W/m² | - |
| 1787906113 | 23.33° C | 63% | 1015.1 hPa | 0 mm | - | 532 W/m² | - |
| 1787905513 | 22.78° C | 66% | 1015.5 hPa | 0 mm | - | 285 W/m² | - |
| 1787904688 | 22.22° C | 68% | 1015.5 hPa | 0 mm | - | 254 W/m² | - |
| 1787904315 | 22.22° C | 70% | 1015.5 hPa | 0 mm | - | 371 W/m² | - |
| 1787903715 | 21.67° C | 72% | 1015.7 hPa | 0 mm | - | 278 W/m² | - |
| 1787902887 | 21.11° C | 73% | 1015.9 hPa | 0 mm | - | 223 W/m² | - |
| 1787902515 | 20.56° C | 76% | 1015.9 hPa | 0 mm | - | 149 W/m² | - |
| 1787901915 | 20.56° C | 74% | 1016.1 hPa | 0 mm | - | 198 W/m² | - |
| 1787901087 | 20° C | 77% | 1016.2 hPa | 0 mm | - | 173 W/m² | - |
| 1787900714 | 20° C | 81% | 1016.3 hPa | 0 mm | - | 136 W/m² | - |
| 1787900115 | 19.44° C | 79% | 1016.1 hPa | 0 mm | - | 99 W/m² | - |
| 1787899287 | 19.44° C | 80% | 1016 hPa | 0 mm | - | 74 W/m² | - |
| 1787898914 | 19.44° C | 79% | 1016.2 hPa | 0 mm | - | 62 W/m² | - |
| 1787898315 | 19.44° C | 80% | 1016.1 hPa | 0 mm | - | 56 W/m² | - |
| 1787897487 | 19.44° C | 80% | 1016.5 hPa | 0 mm | - | 56 W/m² | - |
| 1787897114 | 18.89° C | 82% | 1016.6 hPa | 0 mm | - | 74 W/m² | - |
| 1787896514 | 18.89° C | 82% | 1017 hPa | 0 mm | - | 62 W/m² | - |
| 1787895687 | 18.33° C | 83% | 1016.9 hPa | 0 mm | - | 50 W/m² | - |
| 1787895315 | 18.33° C | 83% | 1016.8 hPa | 0 mm | - | 43 W/m² | - |
* Rain latest hour (hover to see other rain measurements)
** Current wind speed in m/s (hover to see current wind gust speed)